Time,TemperatureF,DewpointF,PressureIn,WindDirection,WindDirectionDegrees,WindSpeedMPH,WindSpeedGustMPH,Humidity,HourlyPrecipIn,Conditions,Clouds,dailyrainin,SoftwareType,DateUTC
2013-02-14 00:00:00,73.8,66.8,29.93,WSW,248,0.0,0.7,79,0.00,CLR,,0.00,WeatherDisplay:10.37,2013-02-14 05:00:00,
2013-02-14 00:05:00,73.8,66.8,29.93,West,270,2.9,2.9,79,0.00,CLR,,0.00,WeatherDisplay:10.37,2013-02-14 05:05:00,
2013-02-14 00:10:00,73.9,67.4,29.93,SE,135,2.3,2.3,80,0.00,CLR,,0.00,WeatherDisplay:10.37,2013-02-14 05:10:00,
2013-02-14 00:15:00,73.8,67.2,29.93,West,270,2.3,2.3,80,0.00,CLR,,0.00,WeatherDisplay:10.37,2013-02-14 05:15:00,
2013-02-14 00:20:00,73.8,67.2,29.93,NNW,338,1.1,1.1,80,0.00,CLR,,0.00,WeatherDisplay:10.37,2013-02-14 05:20:00,
2013-02-14 00:25:00,73.6,67.0,29.93,NW,315,2.3,2.3,80,0.00,CLR,,0.00,WeatherDisplay:10.37,2013-02-14 05:25:00,
2013-02-14 00:30:00,73.6,67.0,29.92,ENE,68,0.0,0.3,80,0.00,CLR,,0.00,WeatherDisplay:10.37,2013-02-14 05:30:00,
2013-02-14 00:35:00,73.4,66.9,29.92,South,180,0.0,0.1,80,0.00,CLR,,0.00,WeatherDisplay:10.37,2013-02-14 05:35:00,
2013-02-14 00:40:00,73.6,67.0,29.92,SSW,202,1.4,0.0,80,0.00,CLR,,0.00,WeatherDisplay:10.37,2013-02-14 05:40:00,
2013-02-14 00:45:00,73.4,66.9,29.92,South,180,1.1,1.1,80,0.00,CLR,,0.00,WeatherDisplay:10.37,2013-02-14 05:45:00,
2013-02-14 00:50:00,73.2,66.7,29.92,NNE,22,0.0,0.2,80,0.00,CLR,,0.00,WeatherDisplay:10.37,2013-02-14 05:50:00,
2013-02-14 00:55:00,73.2,66.7,29.92,West,270,1.1,1.1,80,0.00,CLR,,0.00,WeatherDisplay:10.37,2013-02-14 05:55:00,
2013-02-14 01:00:00,73.2,66.7,29.92,SE,135,0.0,0.2,80,0.00,CLR,,0.00,WeatherDisplay:10.37,2013-02-14 06:00:00,
2013-02-14 01:05:00,73.0,66.5,29.92,South,180,0.0,0.1,80,0.00,CLR,,0.00,WeatherDisplay:10.37,2013-02-14 06:05:00,
2013-02-14 01:10:00,73.2,66.7,29.91,SSW,202,1.1,1.1,80,0.00,CLR,,0.00,WeatherDisplay:10.37,2013-02-14 06:10:00,
2013-02-14 01:15:00,73.0,66.9,29.91,WNW,292,0.0,0.1,81,0.00,CLR,,0.00,WeatherDisplay:10.37,2013-02-14 06:15:00,
2013-02-14 01:20:00,72.9,66.7,29.91,SSE,158,2.3,2.3,81,0.00,CLR,,0.00,WeatherDisplay:10.37,2013-02-14 06:20:00,
2013-02-14 01:25:00,72.9,66.7,29.91,SW,225,0.0,0.2,81,0.00,CLR,,0.00,WeatherDisplay:10.37,2013-02-14 06:25:00,
2013-02-14 01:30:00,72.9,66.7,29.91,WSW,248,0.0,0.1,81,0.00,CLR,,0.00,WeatherDisplay:10.37,2013-02-14 06:30:00,
2013-02-14 01:35:00,72.7,66.5,29.91,South,180,1.3,1.3,81,0.00,CLR,,0.00,WeatherDisplay:10.37,2013-02-14 06:35:00,
2013-02-14 01:40:00,72.9,66.7,29.91,SSE,158,0.0,0.1,81,0.00,CLR,,0.00,WeatherDisplay:10.37,2013-02-14 06:40:00,
2013-02-14 01:45:00,72.5,66.3,29.91,NNE,22,0.0,0.1,81,0.00,CLR,,0.00,WeatherDisplay:10.37,2013-02-14 06:45:00,
2013-02-14 01:50:00,72.5,66.3,29.91,South,180,1.1,1.1,81,0.00,CLR,,0.00,WeatherDisplay:10.37,2013-02-14 06:50:00,
2013-02-14 01:55:00,72.5,66.3,29.91,WSW,248,0.0,0.1,81,0.00,CLR,,0.00,WeatherDisplay:10.37,2013-02-14 06:55:00,
2013-02-14 02:00:00,72.5,66.3,29.91,SSE,158,0.0,0.1,81,0.00,CLR,,0.00,WeatherDisplay:10.37,2013-02-14 07:00:00,
2013-02-14 02:05:00,72.3,66.5,29.91,SSE,158,1.1,1.1,82,0.00,CLR,,0.00,WeatherDisplay:10.37,2013-02-14 07:05:00,
2013-02-14 02:10:00,72.3,66.5,29.90,South,180,0.0,0.1,82,0.00,CLR,,0.00,WeatherDisplay:10.37,2013-02-14 07:10:00,
2013-02-14 02:15:00,72.3,66.5,29.90,WSW,248,0.0,0.1,82,0.00,CLR,,0.00,WeatherDisplay:10.37,2013-02-14 07:15:00,
2013-02-14 02:20:00,72.3,66.5,29.90,West,270,0.0,0.0,82,0.00,CLR,,0.00,WeatherDisplay:10.37,2013-02-14 07:20:00,
2013-02-14 02:25:00,72.3,66.5,29.90,NE,45,0.0,0.0,82,0.00,CLR,,0.00,WeatherDisplay:10.37,2013-02-14 07:25:00,
2013-02-14 02:30:00,72.1,66.3,29.90,SW,225,0.0,0.0,82,0.00,CLR,,0.00,WeatherDisplay:10.37,2013-02-14 07:30:00,
2013-02-14 02:36:00,72.1,66.3,29.90,South,180,0.0,0.0,82,0.00,CLR,,0.00,WeatherDisplay:10.37,2013-02-14 07:36:00,
2013-02-14 02:41:00,72.0,66.2,29.90,South,180,0.0,0.0,82,0.00,CLR,,0.00,WeatherDisplay:10.37,2013-02-14 07:41:00,
2013-02-14 02:46:00,72.0,66.2,29.90,WSW,248,0.0,0.0,82,0.00,CLR,,0.00,WeatherDisplay:10.37,2013-02-14 07:46:00,
2013-02-14 02:51:00,72.1,66.3,29.89,NW,315,0.0,0.0,82,0.00,CLR,,0.00,WeatherDisplay:10.37,2013-02-14 07:51:00,
2013-02-14 02:56:00,72.1,66.3,29.89,WSW,248,1.1,0.0,82,0.00,CLR,,0.00,WeatherDisplay:10.37,2013-02-14 07:56:00,
2013-02-14 03:01:00,72.5,66.7,29.89,WSW,248,1.1,0.0,82,0.00,CLR,,0.00,WeatherDisplay:10.37,2013-02-14 08:01:00,
2013-02-14 03:06:00,72.3,66.5,29.89,WSW,248,1.1,0.0,82,0.00,CLR,,0.00,WeatherDisplay:10.37,2013-02-14 08:06:00,
2013-02-14 03:11:00,72.3,66.5,29.89,WSW,248,1.1,0.0,82,0.00,CLR,,0.00,WeatherDisplay:10.37,2013-02-14 08:11:00,
2013-02-14 03:16:00,72.5,66.7,29.89,WSW,248,0.0,0.0,82,0.00,CLR,,0.00,WeatherDisplay:10.37,2013-02-14 08:16:00,
2013-02-14 03:21:00,72.7,66.9,29.89,WSW,248,0.0,0.0,82,0.00,CLR,,0.00,WeatherDisplay:10.37,2013-02-14 08:21:00,
2013-02-14 11:09:00,78.3,69.3,29.88,WNW,292,4.1,4.1,74,0.00,CLR,,0.00,WeatherDisplay:10.37,2013-02-14 16:09:00,
2013-02-14 11:14:00,75.0,67.3,29.96,NNW,338,2.3,2.3,77,0.00,CLR,,0.00,WeatherDisplay:10.37,2013-02-14 16:14:00,
2013-02-14 11:19:00,75.4,67.3,29.96,ESE,112,2.3,2.3,76,0.00,CLR,,0.00,WeatherDisplay:10.37,2013-02-14 16:19:00,
2013-02-14 11:24:00,75.9,67.8,29.96,ESE,112,0.0,1.1,76,0.00,CLR,,0.00,WeatherDisplay:10.37,2013-02-14 16:24:00,
2013-02-14 11:29:00,76.1,68.0,29.95,ENE,68,3.5,3.5,76,0.00,CLR,,0.00,WeatherDisplay:10.37,2013-02-14 16:29:00,
2013-02-14 11:34:00,76.5,67.9,29.95,ENE,68,2.3,2.3,75,0.00,CLR,,0.00,WeatherDisplay:10.37,2013-02-14 16:34:00,
2013-02-14 11:39:00,76.5,67.9,29.95,NNE,22,1.6,1.7,75,0.00,CLR,,0.00,WeatherDisplay:10.37,2013-02-14 16:39:00,
2013-02-14 11:44:00,76.5,67.6,29.95,NNE,22,2.3,2.3,74,0.00,CLR,,0.00,WeatherDisplay:10.37,2013-02-14 16:44:00,
2013-02-14 11:49:00,76.1,67.2,29.94,ENE,68,3.5,3.5,74,0.00,CLR,,0.00,WeatherDisplay:10.37,2013-02-14 16:49:00,
2013-02-14 11:54:00,76.1,67.6,29.94,NE,45,2.3,2.3,75,0.00,CLR,,0.00,WeatherDisplay:10.37,2013-02-14 16:54:00,
2013-02-14 11:59:00,76.1,67.6,29.94,WNW,292,2.3,2.3,75,0.00,CLR,,0.00,WeatherDisplay:10.37,2013-02-14 16:59:00,
2013-02-14 12:04:00,76.5,67.9,29.94,NE,45,1.1,1.1,75,0.00,CLR,,0.00,WeatherDisplay:10.37,2013-02-14 17:04:00,
2013-02-14 12:09:00,76.5,67.9,29.94,NE,45,1.1,1.1,75,0.00,CLR,,0.00,WeatherDisplay:10.37,2013-02-14 17:09:00,
2013-02-14 12:14:00,75.7,67.2,29.94,ENE,68,2.3,2.3,75,0.00,CLR,,0.00,WeatherDisplay:10.37,2013-02-14 17:14:00,
2013-02-14 12:19:00,75.9,67.0,29.94,NNE,22,4.6,4.6,74,0.00,CLR,,0.00,WeatherDisplay:10.37,2013-02-14 17:19:00,
2013-02-14 12:24:00,76.1,67.6,29.94,North,0,0.0,0.7,75,0.00,CLR,,0.00,WeatherDisplay:10.37,2013-02-14 17:24:00,
2013-02-14 12:29:00,76.1,67.2,29.92,NNE,22,2.3,2.3,74,0.00,CLR,,0.00,WeatherDisplay:10.37,2013-02-14 17:29:00,
2013-02-14 12:34:00,76.3,67.8,29.92,NNW,338,3.5,3.5,75,0.00,CLR,,0.00,WeatherDisplay:10.37,2013-02-14 17:34:00,
2013-02-14 12:39:00,76.6,67.7,29.92,NE,45,3.5,3.5,74,0.00,CLR,,0.00,WeatherDisplay:10.37,2013-02-14 17:39:00,
2013-02-14 12:44:00,76.8,67.9,29.92,ESE,112,0.0,1.7,74,0.00,CLR,,0.00,WeatherDisplay:10.37,2013-02-14 17:44:00,
2013-02-14 12:49:00,77.0,68.1,29.91,ENE,68,3.5,3.5,74,0.00,CLR,,0.00,WeatherDisplay:10.37,2013-02-14 17:49:00,
2013-02-14 12:54:00,77.7,68.8,29.91,NNE,22,2.3,2.3,74,0.00,CLR,,0.00,WeatherDisplay:10.37,2013-02-14 17:54:00,
2013-02-14 12:59:00,78.1,68.7,29.91,NNE,22,3.5,3.5,73,0.00,CLR,,0.00,WeatherDisplay:10.37,2013-02-14 17:59:00,
2013-02-14 13:04:00,78.3,68.9,29.91,NNW,338,3.5,3.5,73,0.00,CLR,,0.00,WeatherDisplay:10.37,2013-02-14 18:04:00,
2013-02-14 13:09:00,78.8,69.4,29.89,East,90,4.6,4.6,73,0.00,CLR,,0.00,WeatherDisplay:10.37,2013-02-14 18:09:00,
2013-02-14 13:14:00,78.8,69.0,29.89,SE,135,2.3,2.3,72,0.00,CLR,,0.00,WeatherDisplay:10.37,2013-02-14 18:14:00,
2013-02-14 13:19:00,79.0,69.2,29.89,NNE,22,3.5,3.5,72,0.00,CLR,,0.00,WeatherDisplay:10.37,2013-02-14 18:19:00,
2013-02-14 13:24:00,79.3,69.5,29.89,ESE,112,4.6,4.6,72,0.00,CLR,,0.00,WeatherDisplay:10.37,2013-02-14 18:24:00,
2013-02-14 13:29:00,79.0,68.8,29.88,SE,135,4.6,4.6,71,0.00,CLR,,0.00,WeatherDisplay:10.37,2013-02-14 18:29:00,
2013-02-14 13:34:00,79.3,69.5,29.88,ENE,68,3.5,3.5,72,0.00,CLR,,0.00,WeatherDisplay:10.37,2013-02-14 18:34:00,
2013-02-14 13:39:00,79.7,69.9,29.88,SE,135,2.3,2.3,72,0.00,CLR,,0.00,WeatherDisplay:10.37,2013-02-14 18:39:00,
2013-02-14 13:44:00,79.9,69.6,29.88,ENE,68,3.5,3.5,71,0.00,CLR,,0.00,WeatherDisplay:10.37,2013-02-14 18:44:00,
2013-02-14 13:49:00,79.9,69.6,29.86,NNE,22,2.3,2.6,71,0.00,CLR,,0.00,WeatherDisplay:10.37,2013-02-14 18:49:00,
2013-02-14 13:54:00,79.9,69.2,29.86,ESE,112,4.6,4.6,70,0.00,CLR,,0.00,WeatherDisplay:10.37,2013-02-14 18:54:00,
2013-02-14 13:59:00,80.1,69.8,29.86,SE,135,5.8,5.8,71,0.00,CLR,,0.00,WeatherDisplay:10.37,2013-02-14 18:59:00,
2013-02-14 14:04:00,80.1,69.8,29.86,ESE,112,4.6,4.6,71,0.00,CLR,,0.00,WeatherDisplay:10.37,2013-02-14 19:04:00,
2013-02-14 14:09:00,80.1,69.8,29.83,East,90,4.6,4.6,71,0.00,CLR,,0.00,WeatherDisplay:10.37,2013-02-14 19:09:00,
2013-02-14 14:14:00,79.9,69.6,29.83,NNE,22,3.5,3.5,71,0.00,CLR,,0.00,WeatherDisplay:10.37,2013-02-14 19:14:00,
2013-02-14 14:19:00,79.5,69.3,29.83,ENE,68,5.8,5.8,71,0.00,CLR,,0.00,WeatherDisplay:10.37,2013-02-14 19:19:00,
2013-02-14 14:24:00,79.7,69.5,29.83,ENE,68,4.6,4.6,71,0.00,CLR,,0.00,WeatherDisplay:10.37,2013-02-14 19:24:00,
2013-02-14 14:29:00,79.7,69.5,29.82,ENE,68,4.6,4.6,71,0.00,CLR,,0.00,WeatherDisplay:10.37,2013-02-14 19:29:00,
2013-02-14 14:34:00,80.1,69.8,29.82,West,270,3.5,3.5,71,0.00,CLR,,0.00,WeatherDisplay:10.37,2013-02-14 19:34:00,
2013-02-14 14:39:00,80.1,69.8,29.82,NNE,22,3.5,3.5,71,0.00,CLR,,0.00,WeatherDisplay:10.37,2013-02-14 19:39:00,
2013-02-14 14:44:00,80.2,70.0,29.82,ENE,68,5.8,5.8,71,0.00,CLR,,0.00,WeatherDisplay:10.37,2013-02-14 19:44:00,
2013-02-14 14:50:00,80.1,69.8,29.81,ESE,112,3.5,3.5,71,0.00,CLR,,0.00,WeatherDisplay:10.37,2013-02-14 19:50:00,
2013-02-14 14:55:00,79.5,69.3,29.81,ESE,112,3.5,3.5,71,0.00,CLR,,0.00,WeatherDisplay:10.37,2013-02-14 19:55:00,
2013-02-14 15:00:00,79.3,69.5,29.81,NE,45,4.6,4.6,72,0.00,CLR,,0.00,WeatherDisplay:10.37,2013-02-14 20:00:00,
2013-02-14 15:05:00,79.2,69.4,29.81,NNE,22,4.6,4.6,72,0.00,CLR,,0.00,WeatherDisplay:10.37,2013-02-14 20:05:00,
2013-02-14 15:10:00,78.6,68.8,29.79,ENE,68,4.6,4.6,72,0.00,CLR,,0.00,WeatherDisplay:10.37,2013-02-14 20:10:00,
2013-02-14 15:15:00,78.3,68.9,29.79,NE,45,2.3,2.8,73,0.00,CLR,,0.00,WeatherDisplay:10.37,2013-02-14 20:15:00,
2013-02-14 15:20:00,78.3,68.9,29.79,ENE,68,4.6,4.6,73,0.00,CLR,,0.00,WeatherDisplay:10.37,2013-02-14 20:20:00,
2013-02-14 15:25:00,77.9,69.3,29.79,East,90,4.6,4.6,75,0.00,CLR,,0.00,WeatherDisplay:10.37,2013-02-14 20:25:00,
2013-02-14 15:30:00,77.4,69.2,29.77,NE,45,3.5,3.5,76,0.00,CLR,,0.00,WeatherDisplay:10.37,2013-02-14 20:30:00,
2013-02-14 15:35:00,76.6,68.9,29.77,ENE,68,3.5,3.5,77,0.00,CLR,,0.00,WeatherDisplay:10.37,2013-02-14 20:35:00,
2013-02-14 15:40:00,76.5,68.7,29.77,ENE,68,2.3,2.3,77,0.00,CLR,,0.00,WeatherDisplay:10.37,2013-02-14 20:40:00,
2013-02-14 15:45:00,76.1,68.7,29.77,NNE,22,2.3,2.3,78,0.00,CLR,,0.00,WeatherDisplay:10.37,2013-02-14 20:45:00,
2013-02-14 15:50:00,76.1,68.7,29.76,NE,45,3.5,3.5,78,0.00,CLR,,0.00,WeatherDisplay:10.37,2013-02-14 20:50:00,
2013-02-14 15:55:00,76.1,69.1,29.76,ENE,68,3.5,3.5,79,0.00,CLR,,0.03,WeatherDisplay:10.37,2013-02-14 20:55:00,
2013-02-14 16:00:00,75.6,68.6,29.76,NNE,22,4.6,4.6,79,0.06,RA,,0.06,WeatherDisplay:10.37,2013-02-14 21:00:00,
2013-02-14 16:05:00,75.4,68.8,29.76,ENE,68,3.5,3.5,80,0.14,RA,,0.14,WeatherDisplay:10.37,2013-02-14 21:05:00,
2013-02-14 16:10:00,75.2,69.0,29.76,ENE,68,0.0,2.6,81,0.14,RA,,0.14,WeatherDisplay:10.37,2013-02-14 21:10:00,
2013-02-14 16:15:00,75.2,69.0,29.76,ESE,112,5.8,5.8,81,0.14,CLR,,0.14,WeatherDisplay:10.37,2013-02-14 21:15:00,
2013-02-14 16:20:00,75.4,69.1,29.76,NE,45,2.3,2.3,81,0.14,CLR,,0.14,WeatherDisplay:10.37,2013-02-14 21:20:00,
2013-02-14 16:25:00,75.0,69.1,29.76,WSW,248,6.9,6.9,82,0.17,RA,,0.17,WeatherDisplay:10.37,2013-02-14 21:25:00,
2013-02-14 16:30:00,75.0,69.1,29.83,SE,135,3.5,3.5,82,0.23,RA,,0.23,WeatherDisplay:10.37,2013-02-14 21:30:00,
2013-02-14 16:35:00,74.8,69.0,29.83,WNW,292,3.5,3.5,82,0.31,RA,,0.31,WeatherDisplay:10.37,2013-02-14 21:35:00,
2013-02-14 16:40:00,74.5,68.6,29.83,North,0,3.5,3.5,82,0.39,RA,,0.39,WeatherDisplay:10.37,2013-02-14 21:40:00,
2013-02-14 16:45:00,73.9,68.1,29.83,NNW,338,5.8,5.8,82,0.62,RA,,0.62,WeatherDisplay:10.37,2013-02-14 21:45:00,
2013-02-14 16:50:00,73.8,68.3,29.85,ENE,68,3.5,3.9,83,0.62,RA,,0.62,WeatherDisplay:10.37,2013-02-14 21:50:00,
2013-02-14 16:55:00,73.8,68.3,29.85,West,270,4.6,4.6,83,0.62,RA,,0.64,WeatherDisplay:10.37,2013-02-14 21:55:00,
2013-02-14 17:00:00,73.9,68.4,29.85,NW,315,1.1,2.6,83,0.59,RA,,0.64,WeatherDisplay:10.37,2013-02-14 22:00:00,
2013-02-14 17:05:00,73.9,68.4,29.85,West,270,2.3,2.3,83,0.50,,,0.64,WeatherDisplay:10.37,2013-02-14 22:05:00,
2013-02-14 17:10:00,73.9,68.4,29.85,NNW,338,3.5,3.5,83,0.50,CLR,,0.64,WeatherDisplay:10.37,2013-02-14 22:10:00,
2013-02-14 17:15:00,73.4,67.9,29.85,NNE,22,6.9,6.9,83,0.50,CLR,,0.64,WeatherDisplay:10.37,2013-02-14 22:15:00,
2013-02-14 17:20:00,73.4,67.9,29.85,NNW,338,0.0,2.3,83,0.50,CLR,,0.64,WeatherDisplay:10.37,2013-02-14 22:20:00,
2013-02-14 17:25:00,73.0,67.2,29.85,NNW,338,3.5,3.5,82,0.47,CLR,,0.64,WeatherDisplay:10.37,2013-02-14 22:25:00,
2013-02-14 17:30:00,72.9,67.0,29.85,NW,315,1.1,1.1,82,0.42,CLR,,0.64,WeatherDisplay:10.37,2013-02-14 22:30:00,
2013-02-14 17:35:00,72.9,67.0,29.85,WNW,292,4.6,4.6,82,0.33,CLR,,0.64,WeatherDisplay:10.37,2013-02-14 22:35:00,
2013-02-14 17:40:00,72.7,66.9,29.85,NNW,338,2.3,2.3,82,0.25,CLR,,0.64,WeatherDisplay:10.37,2013-02-14 22:40:00,
2013-02-14 17:45:00,72.5,66.7,29.85,West,270,1.1,1.4,82,0.03,CLR,,0.64,WeatherDisplay:10.37,2013-02-14 22:45:00,
2013-02-14 17:50:00,72.5,66.7,29.87,WNW,292,2.3,2.3,82,0.03,CLR,,0.64,WeatherDisplay:10.37,2013-02-14 22:50:00,
2013-02-14 17:55:00,72.0,66.2,29.87,NW,315,4.6,4.6,82,0.08,RA,,0.73,WeatherDisplay:10.37,2013-02-14 22:55:00,
2013-02-14 18:00:00,71.6,65.8,29.87,NW,315,4.6,4.6,82,0.08,RA,,0.73,WeatherDisplay:10.37,2013-02-14 23:00:00,
2013-02-14 18:05:00,71.4,66.0,29.87,NNE,22,4.6,4.6,83,0.14,RA,,0.78,WeatherDisplay:10.37,2013-02-14 23:05:00,
2013-02-14 18:10:00,71.4,66.0,29.88,NNW,338,3.5,3.5,83,0.14,RA,,0.78,WeatherDisplay:10.37,2013-02-14 23:10:00,
2013-02-14 18:15:00,71.1,65.6,29.88,North,0,2.3,2.3,83,0.17,RA,,0.81,WeatherDisplay:10.37,2013-02-14 23:15:00,
2013-02-14 18:20:00,70.9,65.5,29.88,SSW,202,1.1,1.8,83,0.17,RA,,0.81,WeatherDisplay:10.37,2013-02-14 23:20:00,
2013-02-14 18:25:00,70.7,65.3,29.88,NW,315,5.8,5.8,83,0.19,RA,,0.84,WeatherDisplay:10.37,2013-02-14 23:25:00,
2013-02-14 18:30:00,70.7,65.3,29.91,West,270,8.1,8.1,83,0.22,RA,,0.87,WeatherDisplay:10.37,2013-02-14 23:30:00,
2013-02-14 18:35:00,70.0,64.6,29.91,WSW,248,8.1,8.1,83,0.36,RA,,1.01,WeatherDisplay:10.37,2013-02-14 23:35:00,
2013-02-14 18:40:00,69.6,64.2,29.91,NNE,22,8.1,8.1,83,0.39,RA,,1.04,WeatherDisplay:10.37,2013-02-14 23:40:00,
2013-02-14 18:45:00,69.4,64.0,29.91,NW,315,2.3,3.3,83,0.42,RA,,1.07,WeatherDisplay:10.37,2013-02-14 23:45:00,
2013-02-14 18:50:00,69.3,63.9,29.91,NW,315,3.5,3.5,83,0.42,RA,,1.07,WeatherDisplay:10.37,2013-02-14 23:50:00,
2013-02-14 18:55:00,68.9,63.5,29.91,NNW,338,6.9,6.9,83,0.34,,,1.07,WeatherDisplay:10.37,2013-02-14 23:55:00,
2013-02-14 19:00:00,68.5,62.8,29.91,NNE,22,4.6,4.6,82,0.34,CLR,,1.07,WeatherDisplay:10.37,2013-02-15 00:00:00,
2013-02-14 19:05:00,68.4,62.6,29.91,NNW,338,5.8,5.8,82,0.28,CLR,,1.07,WeatherDisplay:10.37,2013-02-15 00:05:00,
2013-02-14 19:10:00,68.2,62.5,29.90,West,270,6.9,6.9,82,0.28,CLR,,1.07,WeatherDisplay:10.37,2013-02-15 00:10:00,
2013-02-14 19:15:00,67.8,62.1,29.90,NNW,338,4.6,4.6,82,0.25,CLR,,1.07,WeatherDisplay:10.37,2013-02-15 00:15:00,
2013-02-14 19:20:00,67.8,61.8,29.90,NNE,22,5.8,5.8,81,0.25,CLR,,1.07,WeatherDisplay:10.37,2013-02-15 00:20:00,
2013-02-14 19:25:00,67.5,61.4,29.90,NE,45,5.8,5.8,81,0.23,CLR,,1.07,WeatherDisplay:10.37,2013-02-15 00:25:00,
2013-02-14 19:30:00,67.3,61.2,29.91,NW,315,2.3,4.1,81,0.20,CLR,,1.07,WeatherDisplay:10.37,2013-02-15 00:30:00,
2013-02-14 19:35:00,67.3,61.2,29.91,NW,315,8.1,8.1,81,0.06,CLR,,1.07,WeatherDisplay:10.37,2013-02-15 00:35:00,
2013-02-14 19:40:00,66.9,60.9,29.91,North,0,9.2,9.2,81,0.03,CLR,,1.07,WeatherDisplay:10.37,2013-02-15 00:40:00,
2013-02-14 19:45:00,66.9,60.9,29.91,NNW,338,6.9,6.9,81,0.00,CLR,,1.07,WeatherDisplay:10.37,2013-02-15 00:45:00,
2013-02-14 19:50:00,67.1,61.1,29.91,NNE,22,6.9,6.9,81,0.00,CLR,,1.07,WeatherDisplay:10.37,2013-02-15 00:50:00,
2013-02-14 19:55:00,66.9,60.9,29.91,NNE,22,4.6,4.6,81,0.00,CLR,,1.07,WeatherDisplay:10.37,2013-02-15 00:55:00,
2013-02-14 20:00:00,67.1,61.1,29.91,ENE,68,2.3,3.3,81,0.00,CLR,,1.07,WeatherDisplay:10.37,2013-02-15 01:00:00,
2013-02-14 20:05:00,66.9,60.9,29.91,North,0,6.9,6.9,81,0.00,CLR,,1.07,WeatherDisplay:10.37,2013-02-15 01:05:00,
2013-02-14 20:10:00,66.7,60.7,29.91,West,270,2.3,4.1,81,0.00,CLR,,1.07,WeatherDisplay:10.37,2013-02-15 01:10:00,
2013-02-14 20:15:00,66.9,60.9,29.91,North,0,4.6,4.6,81,0.00,CLR,,1.07,WeatherDisplay:10.37,2013-02-15 01:15:00,
2013-02-14 20:20:00,66.9,60.9,29.91,NW,315,4.6,4.6,81,0.00,CLR,,1.07,WeatherDisplay:10.37,2013-02-15 01:20:00,
2013-02-14 20:25:00,66.9,60.9,29.91,SSW,202,4.6,4.6,81,0.00,CLR,,1.07,WeatherDisplay:10.37,2013-02-15 01:25:00,
2013-02-14 20:30:00,66.6,60.5,29.91,NE,45,12.7,12.7,81,0.00,CLR,,1.07,WeatherDisplay:10.37,2013-02-15 01:30:00,
2013-02-14 20:35:00,66.7,60.7,29.91,ENE,68,6.9,6.9,81,0.00,CLR,,1.07,WeatherDisplay:10.37,2013-02-15 01:35:00,
2013-02-14 20:40:00,66.4,60.4,29.91,North,0,13.8,13.8,81,0.00,CLR,,1.07,WeatherDisplay:10.37,2013-02-15 01:40:00,
2013-02-14 20:45:00,66.4,60.4,29.91,NNW,338,5.8,5.8,81,0.00,CLR,,1.07,WeatherDisplay:10.37,2013-02-15 01:45:00,
2013-02-14 20:50:00,66.2,60.5,29.91,North,0,5.8,5.8,82,0.00,CLR,,1.07,WeatherDisplay:10.37,2013-02-15 01:50:00,
2013-02-14 20:55:00,66.2,60.5,29.91,NNE,22,4.6,4.6,82,0.00,CLR,,1.07,WeatherDisplay:10.37,2013-02-15 01:55:00,
2013-02-14 21:00:00,66.4,60.7,29.91,NW,315,3.5,3.7,82,0.00,CLR,,1.07,WeatherDisplay:10.37,2013-02-15 02:00:00,
2013-02-14 21:05:00,66.4,60.7,29.91,West,270,3.5,3.5,82,0.00,CLR,,1.07,WeatherDisplay:10.37,2013-02-15 02:05:00,
2013-02-14 21:10:00,66.4,60.7,29.93,NNE,22,1.1,2.0,82,0.00,CLR,,1.07,WeatherDisplay:10.37,2013-02-15 02:10:00,
2013-02-14 21:15:00,66.6,60.9,29.93,NW,315,2.3,2.3,82,0.00,CLR,,1.07,WeatherDisplay:10.37,2013-02-15 02:15:00,
2013-02-14 21:20:00,66.7,61.1,29.93,NNW,338,3.5,3.5,82,0.00,CLR,,1.07,WeatherDisplay:10.37,2013-02-15 02:20:00,
2013-02-14 21:25:00,66.6,60.9,29.93,NW,315,2.3,2.3,82,0.00,CLR,,1.07,WeatherDisplay:10.37,2013-02-15 02:25:00,
2013-02-14 21:30:00,66.7,61.1,29.93,NNW,338,4.6,4.6,82,0.03,RA,,1.09,WeatherDisplay:10.37,2013-02-15 02:30:00,
2013-02-14 21:35:00,66.7,61.1,29.93,NNW,338,3.5,3.5,82,0.03,RA,,1.09,WeatherDisplay:10.37,2013-02-15 02:35:00,
2013-02-14 21:40:00,66.6,61.2,29.93,WSW,248,3.5,3.5,83,0.06,RA,,1.12,WeatherDisplay:10.37,2013-02-15 02:40:00,
2013-02-14 21:45:00,66.4,61.1,29.93,West,270,5.8,5.8,83,0.11,RA,,1.18,WeatherDisplay:10.37,2013-02-15 02:45:00,
2013-02-14 21:50:00,66.2,60.5,29.93,NW,315,4.6,4.6,82,0.14,RA,,1.20,WeatherDisplay:10.37,2013-02-15 02:50:00,
2013-02-14 21:55:00,66.4,61.1,29.93,North,0,6.9,6.9,83,0.17,RA,,1.23,WeatherDisplay:10.37,2013-02-15 02:55:00,
2013-02-14 22:00:00,66.0,60.4,29.93,NNE,22,4.6,4.6,82,0.17,RA,,1.23,WeatherDisplay:10.37,2013-02-15 03:00:00,
2013-02-14 22:05:00,66.0,60.4,29.93,NW,315,3.5,3.5,82,0.19,RA,,1.26,WeatherDisplay:10.37,2013-02-15 03:05:00,
2013-02-14 22:10:00,65.8,60.2,29.94,North,0,4.6,4.6,82,0.22,RA,,1.29,WeatherDisplay:10.37,2013-02-15 03:10:00,
2013-02-14 22:15:00,65.8,60.5,29.94,NNE,22,3.5,3.5,83,0.25,RA,,1.32,WeatherDisplay:10.37,2013-02-15 03:15:00,
2013-02-14 22:20:00,65.7,60.4,29.94,NE,45,3.5,3.5,83,0.25,RA,,1.32,WeatherDisplay:10.37,2013-02-15 03:20:00,
2013-02-14 22:25:00,65.5,60.2,29.94,North,0,5.8,5.8,83,0.28,RA,,1.34,WeatherDisplay:10.37,2013-02-15 03:25:00,
2013-02-14 22:30:00,65.7,60.4,29.94,NNW,338,3.5,3.5,83,0.25,RA,,1.34,WeatherDisplay:10.37,2013-02-15 03:30:00,
2013-02-14 22:35:00,65.7,60.4,29.94,NNW,338,8.1,8.1,83,0.25,CLR,,1.34,WeatherDisplay:10.37,2013-02-15 03:35:00,
2013-02-14 22:40:00,65.7,60.4,29.94,WNW,292,3.5,3.5,83,0.22,CLR,,1.34,WeatherDisplay:10.37,2013-02-15 03:40:00,
2013-02-14 22:45:00,65.7,60.4,29.94,NNE,22,5.8,5.8,83,0.17,CLR,,1.34,WeatherDisplay:10.37,2013-02-15 03:45:00,
2013-02-14 22:50:00,65.7,60.4,29.93,NNW,338,2.3,2.6,83,0.14,CLR,,1.34,WeatherDisplay:10.37,2013-02-15 03:50:00,
2013-02-14 22:55:00,65.7,60.4,29.93,NNE,22,4.6,4.6,83,0.11,CLR,,1.34,WeatherDisplay:10.37,2013-02-15 03:55:00,
2013-02-14 23:00:00,65.7,60.4,29.93,NW,315,1.1,2.0,83,0.11,CLR,,1.34,WeatherDisplay:10.37,2013-02-15 04:00:00,
2013-02-14 23:05:00,65.7,60.4,29.93,NNE,22,4.6,4.6,83,0.08,CLR,,1.34,WeatherDisplay:10.37,2013-02-15 04:05:00,
2013-02-14 23:10:00,65.5,60.2,29.94,NNW,338,3.5,3.5,83,0.06,CLR,,1.34,WeatherDisplay:10.37,2013-02-15 04:10:00,
2013-02-14 23:15:00,65.7,60.4,29.94,NNE,22,2.3,2.6,83,0.03,CLR,,1.34,WeatherDisplay:10.37,2013-02-15 04:15:00,
2013-02-14 23:20:00,66.0,60.7,29.94,NW,315,4.6,4.6,83,0.03,CLR,,1.34,WeatherDisplay:10.37,2013-02-15 04:20:00,
2013-02-14 23:25:00,65.8,60.5,29.94,NNW,338,6.9,6.9,83,0.00,CLR,,1.34,WeatherDisplay:10.37,2013-02-15 04:25:00,
2013-02-14 23:30:00,65.7,60.4,29.95,NNE,22,1.1,2.0,83,0.00,CLR,,1.34,WeatherDisplay:10.37,2013-02-15 04:30:00,
2013-02-14 23:35:00,65.8,60.5,29.95,NNW,338,0.0,1.3,83,0.03,RA,,1.37,WeatherDisplay:10.37,2013-02-15 04:35:00,
2013-02-14 23:40:00,66.0,60.7,29.95,NNW,338,2.3,2.3,83,0.03,RA,,1.37,WeatherDisplay:10.37,2013-02-15 04:40:00,
2013-02-14 23:45:00,65.7,60.0,29.95,NNW,338,3.5,3.5,82,0.03,CLR,,1.37,WeatherDisplay:10.37,2013-02-15 04:45:00,
2013-02-14 23:50:00,65.7,60.0,29.94,North,0,5.8,5.8,82,0.03,CLR,,1.37,WeatherDisplay:10.37,2013-02-15 04:50:00,
2013-02-14 23:55:00,65.7,60.4,29.94,NE,45,4.6,4.6,83,0.03,CLR,,1.37,WeatherDisplay:10.37,2013-02-15 04:55:00,